Theta_e
306 297 295 296 299 301 303 304 304 306 307 307 304 302 300 301 302 304 301 303 305 301 300 301 301 302 302 303 304 307 301 299 302 302 302 302 302 301 301 303 305 307 309 311 315 319 322 323 326 327 326 327 327 328 329 328 328 329 329 328 328 329 329 329 329 330 330 328 328 328 327 327 328 328 328 328 329 329 329 328 329 328 328 328 328 328
304 296 296 300 303 304 304 307 308 306 306 304 304 301 300 302 299 304 300 302 304 299 297 300 300 300 302 304 305 305 305 303 300 300 301 303 303 303 302 301 303 305 308 311 311 314 320 322 325 326 326 323 325 327 328 327 328 329 329 328 328 329 329 329 329 329 329 329 329 328 328 328 328 328 327 327 329 329 330 330 329 328 328 329 329 327
296 295 299 303 306 306 306 306 306 305 304 305 302 301 300 300 304 297 297 298 298 298 294 297 297 299 300 302 303 304 304 305 306 304 303 304 304 305 304 303 303 303 305 308 311 313 317 321 324 325 325 325 327 327 327 328 328 328 328 328 328 329 329 328 328 329 328 330 330 330 329 329 328 330 330 329 329 329 329 330 330 329 329 329 330 329
292 296 302 305 306 305 305 305 305 305 305 301 299 298 295 302 300 294 294 296 296 297 296 295 292 295 299 301 301 302 302 303 305 306 307 306 305 306 307 305 305 304 304 307 310 312 315 319 322 323 323 324 325 325 326 327 327 328 328 328 328 328 329 329 328 326 329 329 329 329 329 329 329 327 328 330 330 329 329 329 330 330 330 329 329 331
296 300 306 306 306 305 303 304 303 301 299 301 301 299 299 300 302 298 294 297 295 296 297 294 292 294 298 298 300 303 303 303 304 304 305 305 306 306 308 309 309 306 305 306 309 309 312 317 319 322 323 324 324 325 326 326 327 328 328 328 328 328 328 328 327 326 327 326 326 328 328 326 328 328 328 328 328 329 328 329 329 331 331 331 330 331
299 304 307 304 303 304 303 301 302 301 298 298 301 302 302 303 302 294 297 295 291 291 294 294 287 288 296 298 299 302 302 302 303 303 303 304 304 303 304 306 309 308 306 307 308 308 308 314 317 319 321 322 323 324 325 326 327 327 327 328 328 328 328 328 327 327 326 325 326 325 325 324 325 324 325 325 326 327 327 327 329 330 332 331 331 331
301 306 306 303 302 302 302 302 303 303 298 296 298 304 303 302 302 296 296 295 287 286 294 297 288 285 295 296 297 299 300 302 304 303 304 303 303 303 303 304 306 307 306 305 307 307 306 309 313 315 318 321 322 324 325 325 326 326 326 327 328 328 328 328 327 327 325 326 326 326 326 326 325 324 326 327 327 328 328 328 328 329 331 331 331 331
304 304 304 304 302 301 300 299 302 303 298 296 300 304 303 302 299 299 296 294 292 296 294 295 293 284 286 294 298 299 299 300 301 303 304 304 303 302 302 303 304 306 306 306 305 306 306 308 311 313 316 319 321 323 324 324 325 325 325 326 327 328 327 328 329 328 327 326 326 325 326 325 326 325 325 327 327 328 328 329 329 328 329 331 331 331
304 301 302 301 301 300 299 301 302 304 300 298 299 303 301 301 300 299 296 293 294 288 284 288 293 285 283 292 296 297 296 298 299 301 302 303 303 303 303 303 303 304 305 306 306 305 305 306 308 311 314 317 319 321 323 324 324 325 325 325 326 327 327 328 328 328 327 326 326 326 326 325 325 326 326 325 326 326 326 328 328 328 329 329 331 332
303 305 303 303 300 298 302 302 303 303 299 296 301 303 302 301 300 298 293 292 291 286 283 287 291 284 286 291 294 295 295 296 298 300 301 302 303 303 303 303 303 303 303 304 305 305 305 305 305 307 310 313 316 319 321 322 323 324 324 324 325 326 327 327 328 327 328 326 325 325 325 325 325 324 325 324 324 325 326 326 326 327 328 328 328 329
297 300 307 304 300 302 302 303 304 304 301 301 300 297 295 295 293 293 291 287 285 282 285 291 292 289 282 290 294 293 294 298 297 298 299 301 302 303 303 303 303 303 303 303 304 304 305 305 306 305 306 309 311 313 317 319 322 323 324 324 324 325 326 326 327 328 328 327 326 326 325 325 324 324 324 323 323 323 323 325 325 325 325 327 328 328
298 300 302 303 303 305 304 299 304 303 300 300 295 292 292 290 291 289 285 287 281 282 285 291 292 291 282 285 296 299 298 298 298 297 299 299 300 301 301 302 303 303 302 303 303 302 302 303 303 304 304 304 307 310 312 314 317 319 322 323 323 324 325 326 326 327 328 328 327 326 326 325 325 324 324 323 323 323 323 323 324 325 325 325 326 328
293 296 300 300 301 303 299 296 295 298 298 296 295 293 287 282 283 281 283 280 282 282 283 286 292 286 288 292 295 298 296 297 297 298 298 299 300 301 302 301 301 300 301 302 301 301 301 300 300 301 301 301 303 307 309 310 313 315 317 319 321 322 323 325 325 325 326 327 327 327 326 325 325 325 324 323 322 322 323 323 323 323 323 324 325 327
290 297 297 297 298 301 302 294 290 289 294 295 293 290 287 282 281 279 280 282 281 284 284 285 289 285 289 291 298 299 301 300 298 299 298 299 299 299 300 300 301 301 300 300 301 301 301 301 301 300 300 301 301 301 304 304 307 310 313 314 317 319 319 321 322 324 324 325 326 326 326 326 324 324 324 324 324 323 323 323 323 323 323 323 325 325
284 285 291 295 292 300 301 299 296 293 294 295 297 294 289 288 283 279 282 278 278 280 282 287 283 281 282 288 294 300 302 301 298 298 298 298 299 299 300 300 300 301 302 302 302 303 304 304 303 302 301 301 301 301 301 302 303 305 307 309 311 312 313 316 319 319 322 323 324 325 325 325 324 324 323 324 324 323 323 322 323 323 323 323 324 324
289 289 295 299 298 300 298 303 301 297 293 295 297 298 291 288 289 282 283 283 280 278 278 279 282 285 290 294 293 293 295 295 296 297 297 298 298 298 298 299 299 300 300 300 301 302 303 304 303 303 303 303 303 302 302 302 302 303 305 306 308 310 311 313 315 318 320 321 322 323 324 324 323 321 321 321 321 321 321 322 322 322 322 322 322 323
290 287 294 297 297 298 300 301 300 300 286 293 295 289 292 295 292 282 280 283 282 282 280 283 283 287 292 295 297 296 295 295 294 295 296 296 296 296 296 297 298 300 299 299 301 302 302 302 302 303 302 303 304 303 304 303 302 302 302 303 304 304 306 309 312 315 316 318 318 319 321 320 319 319 319 320 319 320 320 320 321 321 322 322 322 322
288 285 292 294 292 298 298 300 300 301 301 295 289 293 297 297 294 286 281 280 279 277 280 283 282 283 286 283 294 296 295 294 294 295 296 296 296 295 296 297 300 300 300 301 302 302 302 302 301 302 302 302 303 302 301 302 302 302 303 303 303 304 306 306 309 311 313 314 315 315 316 317 319 319 318 318 318 319 319 320 321 320 320 322 322 323
294 283 286 293 295 296 298 301 298 299 297 296 293 299 293 282 283 286 283 276 275 276 278 280 282 282 286 288 289 291 292 293 293 294 294 295 295 295 296 297 299 300 301 302 301 300 300 301 302 302 302 302 302 302 302 303 303 302 302 302 303 304 305 306 309 309 311 313 315 316 315 315 317 317 318 318 318 318 319 319 320 320 320 318 320 320
296 286 284 292 293 293 295 296 287 293 296 296 297 295 298 290 285 284 284 283 282 277 277 278 281 280 288 290 292 293 294 294 294 293 294 295 295 296 296 298 299 300 302 302 301 300 300 300 299 300 301 302 302 302 301 301 301 300 301 301 303 304 304 305 307 308 310 310 312 314 313 313 314 315 315 316 317 318 318 318 317 318 317 319 319 320
292 293 281 287 294 293 287 292 291 293 288 287 291 289 291 287 289 288 288 284 280 278 279 278 278 281 288 295 295 295 296 296 296 296 296 296 296 297 298 299 300 301 302 302 301 301 300 300 300 300 301 301 299 298 299 300 300 300 300 300 301 302 303 304 305 307 307 308 310 310 312 312 312 313 313 313 315 316 316 317 318 319 319 315 317 317
291 291 284 284 285 287 290 296 295 296 295 291 291 289 291 288 282 283 281 288 284 282 278 280 280 283 294 296 297 296 296 297 297 296 297 296 296 297 298 299 301 301 301 301 299 298 298 299 300 299 300 298 298 296 297 299 300 299 300 300 299 300 301 301 302 303 304 305 306 308 308 309 308 308 309 310 310 310 311 312 313 314 314 313 314 314
297 291 286 282 285 288 292 294 293 295 297 295 294 290 293 291 287 283 280 282 284 283 281 280 278 280 293 295 294 295 296 295 297 296 296 296 296 296 297 298 300 299 298 299 298 298 298 298 299 299 299 298 298 298 297 297 300 300 300 300 300 300 300 300 301 301 301 302 303 304 304 305 305 306 307 307 305 306 306 306 306 309 310 310 310 310
294 286 285 285 287 289 291 293 293 293 296 293 293 293 292 290 291 289 285 283 283 282 281 282 279 284 292 292 294 295 293 291 294 295 296 295 295 296 296 298 298 298 298 298 297 297 297 297 296 298 298 299 298 298 299 300 300 301 301 301 300 300 300 300 301 301 301 301 300 301 301 301 301 303 303 304 304 305 306 307 307 307 307 309 310 311
292 288 288 282 282 284 284 288 289 291 291 290 290 292 294 294 292 290 288 285 282 282 282 281 278 285 292 291 292 292 292 292 292 294 294 295 296 296 296 297 297 298 298 297 298 297 297 296 295 297 298 299 298 297 299 300 301 301 301 300 301 299 298 298 299 299 299 298 298 298 298 298 298 299 299 301 303 304 305 305 305 306 310 309 309 310
292 290 288 282 278 276 275 277 280 283 286 289 292 292 293 292 291 289 285 284 281 282 284 281 283 290 290 290 292 292 292 291 292 291 293 295 295 297 297 298 298 297 298 297 298 297 297 298 296 296 296 299 299 300 300 299 299 299 299 300 297 297 297 299 301 300 299 299 298 298 298 299 300 299 299 300 302 302 302 302 302 302 302 303 309 306
290 292 291 289 286 283 285 288 292 292 288 285 288 291 291 293 293 292 287 285 283 286 283 285 288 288 286 288 288 290 291 291 292 292 292 292 295 296 296 298 298 298 298 298 300 298 296 296 298 299 298 300 298 298 300 299 299 298 297 296 296 295 298 301 302 301 302 300 298 299 300 298 299 299 300 300 300 300 300 300 299 300 301 299 301 303
288 289 291 292 291 291 292 292 293 293 289 290 289 289 291 291 292 290 287 285 290 285 281 288 290 288 290 289 289 290 291 290 291 292 292 292 293 295 296 296 297 298 298 297 297 298 298 298 297 298 299 298 299 299 299 298 299 298 298 298 296 298 300 303 301 300 300 299 299 299 299 299 299 300 301 300 300 301 301 301 298 298 298 297 299 299
291 289 292 292 290 292 293 293 293 292 292 291 290 290 290 291 290 288 289 291 290 286 285 290 291 289 291 293 292 292 292 293 293 293 294 294 295 295 296 295 295 295 296 296 295 296 296 297 298 298 298 298 297 298 297 296 295 295 295 297 297 297 300 301 300 300 300 299 299 299 300 300 300 300 299 296 297 297 297 296 295 295 295 295 295 297
295 290 292 292 290 291 291 292 292 291 291 291 290 291 292 291 291 291 291 292 291 289 291 292 291 291 294 294 295 294 294 293 293 293 292 293 295 295 294 294 294 294 294 295 296 296 297 297 298 300 300 297 298 297 297 297 296 297 298 298 296 296 296 298 299 300 300 299 299 299 299 298 299 298 296 296 295 294 293 293 292 292 293 293 293 293
295 290 294 290 288 288 292 292 291 291 290 288 290 291 291 292 291 292 292 292 291 291 292 292 290 290 296 296 296 295 295 294 293 292 293 293 293 293 293 293 293 293 294 295 295 295 296 297 298 298 300 299 298 298 299 299 298 297 297 296 296 296 295 298 299 299 299 300 299 299 299 298 295 293 293 295 294 292 291 291 290 290 291 291 291 292
295 290 293 290 287 287 289 290 290 290 289 288 288 289 290 290 288 290 289 292 290 288 290 290 288 289 295 297 296 293 293 292 293 293 292 293 293 293 293 293 293 294 294 295 295 295 296 296 297 299 301 300 299 297 297 297 297 296 297 296 296 296 295 297 298 299 299 300 299 298 297 294 293 291 291 291 291 290 290 289 289 290 290 290 290 290
292 291 288 289 287 286 289 289 288 288 287 285 286 289 291 291 292 293 293 293 293 293 289 287 288 294 294 296 295 293 293 293 293 294 293 293 294 294 295 294 294 295 295 296 296 296 296 296 297 299 300 299 300 298 298 298 297 298 297 296 296 295 295 296 296 298 299 298 298 296 296 293 291 291 290 290 290 289 289 288 289 289 289 290 289 289
292 291 289 290 286 287 288 287 288 286 281 282 293 295 294 291 292 290 290 292 294 294 292 294 294 295 295 294 295 295 295 295 295 295 296 296 295 293 294 295 295 296 296 297 298 298 297 297 297 298 298 298 299 300 299 298 298 298 296 296 294 294 294 295 295 297 297 295 296 294 293 292 291 291 291 290 289 289 288 288 289 289 289 289 288 289
289 290 289 289 288 285 286 286 284 279 282 294 297 297 297 296 295 293 294 294 295 295 295 295 295 296 297 296 296 297 297 298 296 296 296 296 296 296 295 295 295 295 296 297 297 297 296 296 296 296 294 295 297 297 297 296 295 294 294 294 294 293 294 293 294 295 296 294 294 293 293 292 291 291 291 289 289 288 289 289 289 289 288 289 288 288
289 289 289 288 287 286 284 284 278 280 289 292 294 297 298 297 296 293 291 294 296 296 296 295 296 297 298 298 299 297 296 296 296 297 298 298 297 297 295 296 296 295 296 298 297 297 297 296 297 297 297 296 296 297 297 297 295 294 293 291 293 291 292 292 293 294 294 293 293 293 293 292 292 291 291 289 289 288 288 288 289 288 289 288 288 289
293 291 291 286 288 282 283 284 284 288 286 288 291 291 295 292 292 291 287 291 296 297 296 296 297 298 298 299 298 296 293 294 293 298 299 299 298 297 298 297 298 298 298 298 296 297 298 298 298 298 296 294 296 296 295 293 294 292 291 291 291 291 290 290 291 292 292 292 293 293 293 292 292 291 290 289 288 288 288 288 288 288 288 288 288 288
294 288 289 288 285 288 283 281 283 283 282 286 292 297 299 298 298 297 293 290 297 298 299 298 297 298 298 298 298 294 292 290 292 296 300 297 298 297 295 298 299 300 300 298 295 294 295 294 294 294 297 295 294 294 293 292 292 291 291 290 290 290 289 289 290 290 291 292 292 292 293 292 292 291 289 288 288 288 288 288 287 287 288 288 288 288
292 292 287 286 286 286 284 282 281 281 285 293 294 295 297 297 297 295 289 287 295 298 299 299 298 298 298 297 296 292 291 290 292 297 296 298 295 297 299 300 302 302 301 299 298 297 295 296 296 294 293 293 293 292 291 291 291 291 290 289 290 289 289 289 289 289 290 291 292 293 292 292 291 290 289 288 288 288 288 288 287 287 287 287 287 287
286 286 286 284 283 285 285 283 282 286 287 292 296 295 298 297 298 292 282 285 296 298 300 299 298 298 298 297 294 293 293 290 294 295 297 298 298 300 300 301 301 301 299 297 293 294 295 292 292 290 292 292 293 292 291 291 291 290 290 289 289 289 289 289 288 288 289 290 292 292 292 290 290 289 289 288 288 288 288 287 287 287 287 287 287 287
284 284 285 282 284 285 285 285 286 287 292 292 294 296 297 298 295 286 282 291 299 299 299 300 299 299 298 297 295 293 297 299 300 295 297 297 297 297 298 300 301 301 299 297 295 292 292 292 295 294 293 293 291 291 291 291 291 290 289 289 289 289 289 287 288 288 289 291 292 292 291 290 290 289 288 288 288 287 287 287 287 286 287 287 287 286
284 285 284 286 284 283 284 284 284 288 292 292 292 296 298 294 285 284 295 296 295 296 299 300 299 299 298 298 298 298 300 300 299 292 292 295 297 298 298 298 298 298 295 293 293 292 291 290 289 288 288 287 290 291 291 291 290 289 288 288 289 288 287 288 288 288 289 290 291 290 289 289 288 288 288 287 287 287 287 287 287 286 286 287 286 286
285 284 281 282 285 285 285 282 283 280 290 297 294 293 295 290 291 297 294 290 291 293 295 295 299 299 299 298 299 300 300 298 297 297 296 295 296 295 293 295 296 297 295 291 291 290 292 290 289 289 290 289 289 289 289 289 289 288 288 289 288 287 288 288 288 288 288 289 289 289 288 288 288 288 288 288 287 287 287 286 286 286 286 286 286 285
290 284 284 285 287 281 283 281 282 288 291 297 296 290 293 298 293 292 293 289 290 292 293 295 293 295 298 299 298 298 299 298 298 297 295 295 295 293 293 294 296 296 292 292 293 291 291 292 291 289 286 287 288 288 288 289 288 288 288 288 287 288 288 288 288 288 288 287 287 288 287 287 287 287 287 287 287 287 286 286 286 286 286 286 286 285
290 287 289 285 289 286 285 287 291 288 294 299 300 299 298 300 295 290 293 292 291 293 291 294 296 292 296 298 297 297 297 296 297 297 296 297 295 294 295 295 294 293 291 291 291 289 289 291 289 288 286 285 286 286 288 288 289 288 288 287 287 287 287 287 287 287 286 285 286 287 287 287 287 286 286 286 287 287 286 285 285 285 285 285 285 285
294 294 292 289 287 292 294 294 295 294 292 294 298 299 298 299 292 291 295 293 292 292 294 293 293 295 294 296 297 294 296 296 295 296 295 296 295 293 292 290 288 287 288 288 286 287 288 287 287 287 287 284 284 285 286 286 288 288 288 286 287 287 287 286 286 285 284 284 284 285 286 286 286 286 286 286 286 286 286 285 285 285 285 285 285 285
289 291 291 288 288 289 285 294 293 293 294 294 295 295 293 292 293 291 291 292 291 291 291 291 292 294 295 294 296 296 295 294 294 296 296 293 289 288 290 292 290 289 289 289 288 287 287 287 287 287 286 285 282 284 284 285 284 286 286 286 285 285 285 285 285 284 283 282 282 283 285 285 285 285 286 286 286 286 286 286 286 285 284 285 285 284
286 291 289 289 289 288 289 293 294 295 296 295 296 296 295 296 289 288 288 288 288 287 287 289 289 291 291 292 293 294 295 294 294 294 293 292 291 290 289 289 288 287 286 287 286 287 287 288 288 287 285 285 283 283 282 282 282 283 284 283 284 284 284 284 283 283 282 281 281 281 282 283 281 283 284 285 286 285 285 285 285 285 285 284 285 285
288 292 286 289 288 290 292 293 292 290 291 294 295 294 290 291 290 289 287 287 287 288 286 286 287 287 288 293 292 292 293 293 293 293 293 292 289 288 288 289 288 289 287 286 285 287 288 287 287 286 285 284 282 282 281 280 279 280 281 281 282 283 284 283 282 281 280 280 280 280 280 280 280 280 282 282 282 283 283 283 283 284 284 285 286 286
290 286 289 290 287 287 288 291 293 288 289 293 295 294 289 289 290 290 288 288 288 288 288 288 287 286 286 287 289 291 293 294 293 290 290 290 289 288 287 287 287 287 286 285 285 286 285 285 286 285 284 282 282 282 282 279 278 277 278 280 281 283 283 282 281 280 279 280 280 280 280 280 278 279 279 279 279 278 276 280 282 282 279 277 282 283
290 290 290 288 288 287 293 295 296 295 295 296 294 295 296 295 295 294 292 292 291 288 288 287 286 286 287 286 285 288 289 291 291 288 287 286 288 288 289 288 287 286 285 283 284 282 284 284 284 284 282 282 282 282 281 278 276 277 277 279 280 282 281 281 281 280 279 279 279 280 279 279 279 279 279 279 278 278 278 275 277 283 283 282 281 282
Wind_Speed
7 9 10 13 11 12 13 15 13 11 10 11 9 7 9 7 5 2 5 6 8 5 9 10 10 10 8 7 8 9 7 9 10 10 9 7 7 7 7 8 9 8 9 6 8 8 10 10 9 8 7 8 8 8 10 10 10 11 11 9 11 11 10 9 10 9 10 10 9 8 9 9 7 8 7 7 7 7 7 6 7 7 7 7 8 8
8 9 11 9 12 15 14 13 13 14 4 1 5 9 7 7 5 3 6 6 6 3 4 9 10 11 10 8 8 6 9 13 11 10 11 10 9 8 8 8 9 9 5 6 6 7 8 9 10 9 8 8 11 11 11 12 12 11 11 11 10 10 11 11 10 9 9 10 9 10 10 8 8 8 9 9 8 8 7 8 8 7 7 8 8 9
10 15 9 12 10 10 11 13 13 11 10 4 3 3 7 7 4 9 9 1 3 1 5 4 7 9 5 6 7 9 10 9 9 11 12 13 13 11 10 9 7 6 6 7 9 8 8 9 10 10 9 9 12 12 13 12 11 12 12 11 10 10 12 12 11 10 10 8 8 9 7 9 7 6 6 7 7 7 8 7 8 9 8 8 7 8
11 9 11 13 10 11 12 11 12 11 10 3 3 5 4 2 5 2 4 6 3 3 1 1 3 9 6 6 9 6 7 8 8 11 12 11 14 15 13 10 11 11 9 9 9 9 8 9 9 8 9 10 9 9 9 10 13 11 11 11 12 11 12 12 12 11 8 8 6 5 5 6 7 6 5 6 7 7 8 9 8 8 9 9 8 7
4 7 11 14 12 13 13 12 11 10 9 4 4 5 3 3 4 1 3 2 3 3 3 4 5 9 9 9 10 10 13 12 13 12 13 12 11 11 10 10 10 11 11 11 10 9 9 9 11 12 12 8 9 10 11 11 12 11 14 13 13 11 11 11 12 12 9 7 7 6 5 4 6 5 6 7 9 10 10 10 10 11 10 10 10 10
7 11 13 17 14 13 13 12 13 8 8 5 6 7 4 4 3 9 5 3 2 3 6 4 2 5 6 10 13 9 6 13 13 13 15 15 13 8 10 12 10 8 10 13 13 13 13 13 12 11 10 11 11 12 12 12 12 11 11 12 11 10 10 10 10 13 11 9 9 9 9 10 9 10 10 13 14 12 12 13 10 9 10 10 10 10
8 13 15 16 15 14 13 12 12 10 8 5 7 10 6 3 2 8 3 4 3 4 1 4 6 5 5 8 4 2 4 10 8 14 16 12 11 10 10 10 11 12 8 7 10 11 11 12 12 12 12 13 13 13 11 10 11 12 11 11 12 12 10 10 9 11 11 11 10 12 12 11 12 12 12 10 8 9 9 8 9 9 9 11 11 11
9 17 18 17 17 16 14 14 11 14 7 6 2 11 7 4 3 1 4 4 2 3 1 2 1 2 7 12 5 8 11 11 8 10 13 13 11 11 11 12 12 13 12 9 9 10 10 13 14 15 15 14 15 13 10 11 10 13 13 12 13 11 11 11 11 12 13 13 12 11 11 11 12 13 11 9 9 7 7 9 10 8 9 10 11 11
20 15 19 18 17 13 14 11 6 12 9 2 2 5 6 5 3 3 2 2 1 3 4 3 1 2 5 9 4 7 11 13 16 12 8 10 12 12 12 13 13 14 13 12 11 10 9 9 12 12 13 14 12 9 12 12 12 11 11 11 11 12 12 11 13 13 14 14 13 13 11 12 12 11 9 6 7 7 7 8 9 9 9 10 11 12
8 15 16 16 12 12 11 7 6 12 9 2 2 4 3 3 4 3 2 1 2 1 7 5 6 5 7 6 9 5 9 15 13 8 9 9 10 13 14 13 11 8 9 10 12 11 11 9 8 8 9 9 10 10 10 8 8 8 8 11 12 13 12 12 13 13 13 14 13 13 14 15 12 9 7 6 7 8 8 9 9 9 10 10 10 11
1 6 9 11 14 9 5 4 4 10 4 4 5 9 6 3 3 1 2 2 2 6 6 6 8 6 8 6 11 6 8 10 5 4 5 6 9 12 13 11 8 8 8 9 9 10 10 9 10 7 8 9 7 7 7 8 9 8 9 10 12 14 10 11 13 14 15 14 14 14 15 15 13 11 9 8 8 7 7 9 9 8 8 8 10 9
3 2 6 2 3 5 5 2 3 6 10 9 3 6 7 4 3 1 1 1 2 7 4 13 8 11 9 2 8 9 5 7 8 6 6 6 7 7 8 9 10 9 8 8 8 7 6 6 6 7 8 7 8 7 8 7 6 7 8 9 11 10 11 11 12 13 14 13 14 14 14 14 13 10 9 11 11 9 9 8 8 7 7 7 7 9
7 12 2 5 5 9 6 9 1 8 8 5 7 8 9 3 2 1 2 3 7 8 1 1 8 3 18 8 6 7 3 5 5 4 5 3 3 3 4 3 4 4 5 6 6 6 5 6 5 5 6 6 6 8 9 9 8 7 7 9 10 12 11 10 9 10 11 10 12 12 12 11 10 10 11 10 10 9 9 9 9 9 10 8 8 10
3 0 4 3 3 5 12 13 7 7 9 9 11 10 9 5 4 5 3 2 3 1 1 0 2 7 2 5 13 16 19 8 6 6 5 4 3 4 4 4 4 4 5 5 5 5 6 7 7 8 7 7 7 7 8 8 8 8 8 8 9 11 7 6 7 9 9 11 10 8 9 10 9 10 10 10 10 10 9 9 10 10 10 10 11 10
8 7 8 13 8 8 13 12 13 5 10 8 4 8 7 6 4 8 6 7 4 2 0 2 4 7 5 6 6 20 20 9 5 4 7 6 3 2 4 5 4 3 3 4 5 5 7 8 7 7 8 8 8 8 8 7 7 7 7 8 9 8 7 7 7 6 8 9 9 9 9 9 8 10 9 9 8 8 9 8 9 9 9 10 9 10
18 6 6 13 2 12 11 7 9 9 5 4 2 3 5 10 2 3 1 2 2 2 1 2 7 3 6 1 3 3 2 5 3 4 5 6 4 4 2 4 5 5 5 5 5 6 6 6 6 6 6 6 6 7 6 7 7 8 9 8 9 10 8 8 8 9 9 9 7 8 10 10 8 7 7 7 7 6 6 7 8 8 8 8 8 8
8 11 11 6 4 17 15 9 10 15 10 10 7 11 8 3 1 3 2 1 1 1 8 4 5 6 4 11 13 6 6 9 5 6 6 6 6 5 5 5 5 6 6 6 7 6 6 5 5 6 6 6 6 7 8 8 6 6 5 5 6 5 5 5 6 6 6 6 5 6 6 6 6 6 7 8 6 7 6 6 7 8 8 7 7 7
12 2 1 12 4 5 2 2 7 9 3 7 9 9 4 5 3 2 3 1 1 4 4 7 10 2 2 9 4 14 11 7 7 8 7 5 5 5 6 6 7 7 8 7 6 5 6 6 6 5 5 5 5 5 5 5 4 5 5 5 5 5 6 5 5 5 5 5 5 5 5 6 6 6 6 6 6 6 6 7 6 5 7 9 7 6
11 5 2 2 10 5 1 6 5 2 2 10 8 5 10 3 6 4 1 4 3 5 3 4 6 5 10 9 1 3 7 7 8 6 5 7 7 8 7 6 6 6 5 5 5 5 5 6 6 6 5 4 4 5 5 4 5 4 4 5 5 5 5 6 5 5 5 5 5 5 6 6 6 6 6 6 6 5 6 6 6 6 6 4 6 7
9 7 2 3 4 5 4 8 11 11 1 1 0 8 5 2 3 7 8 1 3 4 3 4 5 7 9 7 7 7 10 9 8 6 8 10 9 8 7 7 7 7 7 6 6 6 6 6 5 6 6 6 6 6 5 5 4 4 3 3 2 2 3 4 5 4 5 5 5 5 5 5 6 6 6 6 6 8 7 6 5 5 5 7 6 6
9 6 5 3 1 7 9 8 14 16 13 7 8 9 6 2 1 2 2 4 3 2 3 3 6 8 6 10 10 11 12 12 12 9 7 7 8 8 7 7 6 6 6 6 7 6 6 5 5 5 5 5 5 4 4 4 4 4 3 3 1 2 2 2 3 3 4 4 5 5 6 7 6 6 5 5 5 6 6 6 6 5 4 4 5 4
5 10 11 7 4 10 11 8 5 11 12 10 11 10 11 10 4 8 8 3 3 2 5 5 12 2 2 1 10 8 7 9 7 7 6 6 5 6 5 5 5 5 5 5 5 5 5 5 5 5 5 4 5 4 4 3 4 4 4 4 4 4 4 5 4 4 4 4 4 5 5 5 4 4 3 3 4 4 4 3 2 2 1 3 2 3
8 4 11 9 9 10 5 2 3 3 5 6 7 7 8 6 2 1 7 7 3 5 2 1 3 10 7 1 5 3 4 5 9 7 6 5 6 5 5 5 5 5 5 5 5 4 5 5 6 6 6 5 5 5 5 5 5 5 5 5 5 4 4 4 4 4 4 3 3 3 2 2 3 2 3 3 4 4 4 4 4 2 2 3 3 3
13 6 10 5 4 4 3 0 2 3 4 7 7 5 8 13 15 12 4 2 6 3 5 3 7 4 1 2 2 4 4 4 3 6 8 5 5 5 6 6 5 4 4 3 4 4 4 5 5 5 5 6 5 6 7 6 5 5 5 6 5 5 5 4 2 2 3 2 2 2 2 2 2 2 3 4 4 4 4 4 4 4 4 4 4 4
9 6 14 10 4 3 3 3 2 2 1 7 11 14 13 10 9 6 3 0 1 5 5 7 10 11 4 2 2 1 4 4 3 0 5 7 5 5 5 5 4 4 4 4 4 4 5 5 5 5 5 6 6 5 6 6 6 6 6 5 6 5 4 3 2 1 1 1 1 1 1 2 1 1 2 3 3 4 4 4 4 4 5 4 5 5
1 8 15 16 18 14 12 11 16 16 20 12 9 11 10 12 14 10 11 5 9 3 6 5 11 12 0 1 1 1 2 3 3 4 3 3 5 5 4 4 4 4 4 4 4 5 5 6 5 5 6 6 6 7 7 6 6 6 5 6 5 5 4 3 2 2 2 2 2 2 2 2 2 3 3 2 3 4 4 4 3 4 3 4 5 5
3 8 12 14 17 18 18 11 2 7 7 5 6 15 18 14 8 7 3 6 13 10 8 8 14 12 2 5 4 5 5 7 6 5 5 4 2 2 4 4 4 4 5 5 6 5 4 5 6 7 6 6 6 6 7 7 7 6 5 4 5 4 4 4 4 4 4 3 3 4 4 3 3 3 4 4 4 3 4 4 4 3 4 3 4 4
3 7 13 12 17 14 9 5 14 16 18 17 15 13 11 15 14 13 13 17 14 5 8 12 19 15 16 5 5 6 6 5 5 6 5 5 5 6 6 4 5 3 3 4 5 6 7 7 6 6 6 6 7 6 6 6 6 6 5 6 5 6 5 5 5 5 4 4 4 5 4 4 4 4 5 4 5 6 5 5 4 4 3 2 3 4
9 12 13 13 12 8 9 11 16 13 13 15 19 17 19 17 17 18 20 21 11 11 18 25 14 14 21 12 8 8 8 8 9 8 8 8 5 5 5 6 7 7 7 8 8 7 6 6 7 7 7 7 6 6 6 5 5 4 5 5 6 7 7 6 5 5 5 5 5 5 5 4 3 4 3 3 2 3 3 3 3 2 1 1 2 2
9 12 8 11 9 8 10 11 13 15 11 13 16 18 18 19 21 22 21 17 14 14 20 21 6 17 21 10 13 10 7 6 4 3 4 5 7 7 7 7 8 8 8 8 7 7 7 8 7 7 7 6 8 7 6 5 6 6 7 7 6 6 5 6 6 5 5 6 5 5 4 4 3 3 2 1 2 2 1 1 0 0 0 1 0 0
13 11 14 9 8 9 10 12 11 15 15 15 17 19 18 16 18 22 22 19 17 20 22 23 17 19 19 6 9 8 7 2 5 6 8 8 7 8 9 8 7 7 7 7 7 7 7 7 7 6 7 8 8 9 9 8 7 7 6 6 6 6 6 7 6 6 6 6 5 5 5 4 3 2 1 0 0 0 0 0 1 0 0 0 0 1
9 7 9 8 11 9 9 13 15 12 13 14 14 18 19 21 21 23 23 23 19 20 23 20 16 18 20 6 4 5 5 7 9 9 8 7 8 8 9 9 8 8 8 8 8 8 9 9 8 8 9 9 9 8 7 7 7 7 8 7 8 7 7 7 7 7 7 6 4 4 4 4 3 2 1 1 1 1 1 1 1 0 0 0 0 0
12 9 9 10 12 13 13 9 9 7 5 7 17 23 29 29 27 23 19 15 14 20 21 19 22 27 3 7 7 5 7 8 10 10 9 9 10 11 11 10 10 9 10 11 11 12 11 11 11 11 10 8 8 9 9 9 8 9 8 9 8 8 8 7 7 6 6 5 5 5 6 5 4 3 3 2 2 2 2 2 1 1 1 0 0 1
10 11 7 9 13 13 11 8 7 10 17 19 20 28 27 23 21 17 19 23 23 20 16 19 22 13 4 5 10 11 13 12 10 9 11 12 11 8 8 8 9 10 10 11 13 14 12 9 8 9 10 11 10 10 8 9 10 9 8 8 7 8 7 7 6 6 5 5 6 6 6 6 6 5 5 4 4 4 3 2 2 1 1 1 1 1
12 12 7 6 9 8 9 12 8 17 17 13 0 8 14 20 21 26 26 22 20 21 25 25 25 20 10 6 8 9 8 8 7 11 11 11 11 12 12 10 9 9 11 13 13 11 9 10 8 8 6 7 8 7 7 7 6 6 6 7 8 7 8 7 7 6 6 6 6 6 7 7 6 6 6 5 5 5 5 4 3 2 2 3 3 2
10 13 6 5 4 4 8 12 11 13 4 3 4 15 16 17 18 14 19 23 27 30 30 27 25 19 14 17 13 7 6 6 7 12 16 14 11 9 8 9 9 8 12 14 15 13 11 10 12 11 12 8 7 8 8 9 7 8 7 6 8 8 7 8 7 7 6 7 7 7 7 7 6 6 6 6 5 5 5 4 5 4 3 3 2 2
4 6 9 8 5 8 5 11 12 3 4 1 2 9 18 22 22 20 19 25 22 11 9 17 24 20 17 18 10 7 6 4 8 16 17 16 9 8 11 9 10 14 17 15 10 11 12 12 12 12 7 7 9 9 9 6 7 7 7 7 7 8 7 7 7 8 8 7 6 6 6 6 6 5 5 6 5 4 4 4 4 3 3 3 3 2
5 5 4 11 7 7 9 7 5 6 13 11 20 11 10 4 7 11 13 24 9 15 20 23 25 24 23 17 15 9 5 6 13 23 18 8 8 7 6 8 14 17 15 12 8 8 8 8 7 7 10 11 10 9 7 8 9 9 8 8 7 8 7 7 8 7 7 6 6 6 7 7 6 6 5 5 5 4 3 3 3 3 3 4 4 3
8 4 4 2 4 10 9 13 10 13 17 14 18 12 7 5 10 9 4 20 15 20 23 25 29 26 20 17 11 9 8 13 21 22 9 15 7 9 12 18 21 22 15 12 12 12 10 10 11 11 8 9 10 8 8 9 10 10 9 9 8 7 8 9 8 8 8 7 6 6 7 7 7 6 6 5 5 5 5 4 4 3 3 2 3 2
7 4 3 5 5 8 12 11 14 6 12 16 9 13 17 12 13 11 5 17 29 25 28 23 24 23 16 12 11 13 15 17 27 5 11 14 17 18 19 20 22 20 16 13 8 9 10 6 6 6 9 11 13 9 10 10 9 9 10 9 7 8 10 10 7 6 6 7 7 7 6 5 6 6 7 6 5 4 4 3 4 3 3 3 3 3
6 4 8 10 4 5 10 8 2 5 8 2 9 14 16 16 14 13 18 25 26 5 17 20 25 20 13 14 14 16 22 23 17 9 16 13 15 15 17 20 21 21 18 13 12 9 6 9 12 14 15 13 9 10 10 10 10 9 8 8 8 11 9 6 7 7 7 7 7 7 7 5 6 7 5 6 6 5 4 4 4 4 4 3 3 3
5 3 1 6 9 9 6 8 9 5 5 4 8 18 18 15 13 20 25 10 10 14 18 20 20 17 12 15 14 16 19 16 12 6 10 13 16 19 20 20 19 16 11 8 10 7 7 7 7 6 5 6 11 11 11 11 11 9 8 8 10 8 6 7 8 8 8 8 8 7 6 6 5 6 6 5 6 6 5 4 5 5 5 4 4 3
7 6 6 8 3 1 3 3 2 10 6 15 15 15 14 15 21 14 4 7 3 6 8 8 14 13 15 15 18 19 20 16 15 17 17 16 15 14 10 11 16 18 15 8 6 7 10 7 8 10 11 8 8 9 9 10 10 8 8 10 8 6 8 8 9 9 9 8 7 7 7 7 7 6 6 6 7 7 7 6 6 5 5 5 5 4
5 7 3 5 5 7 9 12 9 4 4 10 20 15 19 16 4 3 1 4 1 5 7 9 5 6 10 14 14 17 18 18 18 13 9 10 13 11 9 13 16 16 10 9 11 12 12 12 10 9 6 6 7 8 9 11 11 9 10 9 7 8 8 9 8 9 9 9 8 8 7 7 6 5 5 6 6 6 7 6 5 5 5 5 5 4
9 8 7 9 8 9 9 9 8 2 6 13 16 10 10 13 5 5 0 4 3 1 2 9 8 6 11 14 13 13 14 13 14 15 14 16 14 14 16 18 16 13 10 10 10 9 9 12 11 8 6 5 7 6 8 7 11 10 11 8 8 9 10 9 9 9 9 8 8 7 6 6 5 5 4 4 5 5 5 5 5 4 3 4 3 3
10 17 6 4 4 6 11 9 6 11 9 8 10 8 7 10 7 2 1 1 1 4 7 6 7 9 8 10 12 10 13 14 14 14 13 15 14 13 11 7 6 6 6 6 5 7 8 6 7 9 10 6 6 7 6 7 9 14 10 8 8 8 9 10 10 9 8 8 7 7 7 7 6 5 5 4 4 4 5 5 4 4 4 3 3 3
4 5 9 7 2 7 11 13 17 15 14 10 9 8 7 4 1 1 1 1 1 0 2 0 4 8 10 9 12 14 14 11 13 15 16 10 6 6 8 11 10 9 10 10 9 9 7 8 9 10 10 9 5 6 5 6 4 5 7 8 7 7 8 8 9 9 8 8 7 7 7 7 6 5 5 4 4 4 4 4 4 4 4 4 4 3
6 7 7 10 9 13 13 14 13 19 16 8 13 15 15 10 1 1 2 2 1 0 1 1 1 1 3 6 8 10 13 13 13 14 11 9 10 10 10 10 9 6 6 5 7 8 8 10 11 11 10 10 7 5 4 4 4 5 6 6 7 7 8 8 9 9 9 8 7 7 7 7 8 7 5 5 5 5 5 4 5 5 5 6 5 5
6 11 7 7 10 10 13 17 9 6 8 17 18 9 2 1 3 0 1 1 1 1 1 1 2 5 5 11 10 10 10 12 12 13 12 10 7 7 9 10 10 10 8 8 8 10 13 12 11 11 11 9 6 6 5 5 5 5 6 6 7 8 10 9 8 9 8 8 7 7 7 7 7 7 7 6 5 5 6 7 6 6 5 4 5 6
5 8 5 9 12 13 15 18 13 11 15 18 17 11 6 5 4 3 4 4 7 9 10 10 8 3 4 4 4 6 10 13 11 7 9 9 8 7 6 7 7 8 7 5 6 7 6 7 10 11 10 9 8 7 7 6 5 5 5 6 6 8 10 10 10 9 8 7 7 7 7 7 7 7 7 7 7 6 3 2 6 6 6 4 4 7
11 9 9 12 11 14 16 22 16 13 18 16 4 10 15 13 12 14 13 11 8 6 4 3 5 5 7 7 4 6 8 10 12 4 5 5 7 7 10 10 9 8 8 7 8 5 6 7 9 10 10 10 9 9 8 8 6 6 5 5 6 8 10 10 10 8 7 7 7 7 7 7 7 7 7 7 6 6 6 3 0 2 5 6 5 4
Wind_Direction
153 169 188 196 189 187 192 204 206 211 193 207 194 202 219 231 232 212 135 177 177 168 207 220 238 248 243 228 222 222 201 217 221 216 222 225 224 217 208 199 201 204 211 203 199 183 181 183 181 182 178 179 183 185 185 186 186 187 192 182 184 185 183 184 188 192 190 194 197 207 208 208 199 198 187 193 197 197 195 192 188 180 176 175 183 190
169 195 211 189 185 190 195 200 208 224 223 63 227 196 217 215 236 235 142 171 180 186 219 205 233 244 245 244 246 227 213 219 212 219 221 222 223 221 215 210 200 205 202 196 201 194 177 178 179 177 181 176 181 192 188 191 189 188 190 195 188 178 188 194 196 195 196 197 199 197 203 199 201 197 196 199 198 202 197 196 191 187 185 184 185 190
192 209 188 181 186 190 204 209 218 223 236 240 281 247 208 198 194 82 114 143 66 38 279 283 275 264 249 244 230 228 226 228 217 212 218 218 225 226 216 216 217 208 203 194 197 190 181 176 177 177 186 190 190 188 192 191 187 188 192 196 190 183 188 196 196 196 203 197 199 198 201 197 205 215 207 204 202 200 204 204 198 194 194 194 196 190
195 214 183 178 193 195 209 216 215 224 238 192 229 268 224 148 184 205 155 154 144 190 248 37 318 280 274 268 264 245 242 243 230 228 230 215 220 224 224 210 209 211 201 194 191 192 189 181 179 181 189 195 190 190 196 193 193 192 197 196 192 191 188 193 196 198 199 199 200 200 195 198 206 206 204 205 206 206 205 213 204 201 198 200 201 205
177 142 171 168 200 202 198 206 218 211 226 185 216 235 243 197 232 70 123 157 129 257 305 305 290 277 257 252 249 240 232 239 237 233 232 229 222 220 224 230 219 209 200 194 194 195 188 185 189 189 194 185 189 196 198 197 194 197 198 197 194 194 193 190 190 191 189 183 194 196 204 203 203 215 209 206 211 206 206 210 207 206 198 198 202 210
199 159 171 178 196 207 201 206 212 200 224 205 215 230 235 245 235 105 141 163 185 263 187 164 325 269 245 226 240 245 219 230 232 234 232 226 228 216 220 226 233 235 204 193 195 195 191 191 193 194 186 185 195 199 203 198 199 198 198 194 194 196 196 197 189 187 186 193 191 187 193 202 203 207 205 208 207 199 201 207 206 201 198 201 202 205
186 159 181 181 192 204 208 214 206 200 224 208 210 206 241 280 35 126 155 90 288 247 133 176 198 278 340 304 279 279 229 234 225 220 232 225 223 220 221 221 224 224 224 214 199 193 188 190 188 192 190 193 195 205 199 195 200 201 196 193 192 194 196 194 189 179 184 195 200 200 201 203 205 210 216 214 208 205 204 194 200 202 199 202 202 206
179 173 179 184 187 197 207 212 200 195 201 215 309 184 193 194 113 157 162 179 252 93 176 234 168 260 283 264 263 284 285 275 259 229 221 219 214 215 218 219 220 221 217 211 209 199 190 184 185 189 194 194 200 199 184 197 198 198 198 192 193 194 194 193 189 181 185 193 199 203 206 207 214 216 220 207 213 203 185 191 198 195 199 200 203 205
181 180 183 185 189 196 207 207 171 176 184 209 257 154 175 190 176 148 142 204 217 59 274 180 215 295 223 273 224 232 263 260 252 238 222 210 211 215 220 220 218 220 221 217 216 215 207 194 192 190 192 200 198 182 188 195 198 198 195 194 194 196 196 194 190 189 188 193 196 201 205 213 219 219 220 208 201 200 185 192 195 196 198 199 203 206
184 200 189 186 184 199 199 187 164 166 187 265 205 88 90 73 83 101 165 132 301 155 239 178 165 235 264 238 272 198 222 249 246 236 227 215 206 210 219 222 220 215 217 217 221 221 218 213 210 199 192 188 189 189 191 188 186 195 195 197 196 202 198 195 192 193 192 192 192 200 207 213 215 211 213 199 205 201 192 203 196 192 195 199 202 206
154 347 174 190 199 192 163 185 168 175 152 156 107 94 73 64 78 50 40 62 51 257 230 173 185 171 287 184 236 175 223 230 243 244 243 225 215 212 212 212 215 216 206 206 211 213 213 209 202 190 175 185 180 180 179 185 187 187 195 202 202 206 198 195 197 193 197 194 195 204 207 210 213 207 204 205 214 201 195 205 207 202 197 193 203 201
123 118 177 217 126 164 138 70 143 144 141 143 140 129 99 46 57 76 15 47 151 261 142 184 188 174 225 245 230 231 223 196 200 213 225 232 221 203 200 207 215 212 207 198 196 203 187 163 170 172 179 167 173 172 183 187 186 186 194 198 208 210 204 202 201 198 202 198 200 207 207 209 209 202 202 207 210 204 204 202 206 208 211 210 196 198
167 183 138 112 343 145 133 112 20 129 167 144 141 133 131 169 96 247 149 204 214 244 270 253 186 197 235 230 276 296 224 200 210 202 225 241 190 146 110 119 111 119 130 157 174 176 173 175 173 179 188 169 164 181 186 188 186 190 192 198 204 214 209 206 200 205 208 208 211 210 210 212 206 203 204 204 206 201 203 199 200 197 208 205 202 202
188 321 176 140 130 203 156 160 160 162 199 170 171 156 155 163 178 223 185 232 296 248 294 138 31 255 300 274 219 254 260 218 205 211 211 232 174 132 162 145 140 146 149 162 166 174 186 191 194 196 192 191 191 190 189 189 189 193 198 202 207 219 209 207 204 208 210 214 218 216 213 215 212 215 211 210 205 202 202 197 200 199 203 204 206 199
147 194 233 159 203 173 191 187 172 146 167 184 160 170 183 177 178 206 176 194 199 178 216 236 110 233 126 253 205 215 240 257 258 218 201 202 202 176 132 147 148 162 183 168 174 183 192 197 190 187 189 195 199 197 194 194 199 192 200 202 212 219 214 208 211 206 211 215 214 215 215 212 210 217 217 219 212 202 202 203 202 204 200 202 201 201
191 194 169 183 72 166 186 168 144 123 137 210 161 145 196 215 175 167 186 205 164 127 193 253 206 211 185 228 239 246 263 253 239 261 189 198 158 137 170 177 186 194 204 207 209 214 203 189 183 177 181 187 188 191 188 192 189 193 203 203 210 211 207 204 206 210 211 213 208 212 214 215 211 211 215 222 219 218 206 205 206 208 203 198 191 197
166 213 152 159 242 176 180 154 170 150 182 181 177 204 200 35 76 97 6 230 57 30 249 166 294 295 278 287 270 254 234 248 229 227 220 195 179 168 196 207 206 216 221 219 213 208 188 173 172 175 176 178 178 180 189 192 188 190 190 197 213 217 211 213 212 211 213 213 210 218 217 214 215 211 211 213 216 217 218 212 212 208 209 203 199 197
166 117 139 156 160 203 154 176 164 180 107 136 200 198 108 70 68 128 193 93 217 197 257 148 220 255 176 282 220 216 215 225 223 218 218 209 181 190 215 206 202 208 215 216 198 173 171 175 177 179 180 178 180 185 180 179 173 174 179 183 192 196 203 213 203 208 204 209 217 221 220 219 213 213 216 214 217 216 217 225 224 215 210 213 208 199
126 88 269 271 158 159 88 123 155 213 358 186 182 127 148 220 224 216 144 225 185 225 260 233 213 232 199 230 39 218 196 223 228 211 190 204 201 207 218 217 210 211 205 204 166 156 162 175 182 180 181 172 154 152 158 148 141 154 175 185 183 199 199 197 201 201 206 199 205 209 219 219 223 219 219 220 219 217 222 227 228 228 228 220 204 198
165 144 108 329 173 183 176 170 185 187 202 343 155 179 212 61 238 168 197 192 124 236 205 289 156 247 198 225 179 207 192 206 216 203 202 200 198 204 213 206 205 206 197 186 180 184 190 193 190 177 165 162 152 140 134 132 133 152 167 159 184 199 190 192 193 191 200 208 203 213 211 218 211 214 214 213 211 216 221 225 225 227 224 212 196 197
177 138 144 185 190 149 184 199 195 181 177 183 178 185 188 194 259 111 239 196 167 189 221 271 278 265 244 203 195 202 190 200 202 208 210 199 198 201 188 182 187 184 182 185 184 181 175 170 162 159 145 135 115 104 111 124 150 156 126 143 171 174 170 178 200 191 207 200 208 200 207 211 213 221 218 224 222 220 222 221 220 223 208 188 204 189
158 180 155 144 159 200 202 197 212 188 179 191 182 190 181 163 132 165 235 186 218 152 228 200 247 283 293 188 188 201 182 190 203 194 198 197 167 142 130 130 139 153 184 185 188 167 159 155 149 128 108 111 115 116 118 131 128 134 150 172 178 187 191 195 212 210 223 228 222 217 219 225 231 233 247 256 270 263 265 264 258 242 230 195 222 185
169 114 128 168 186 182 187 110 89 53 188 188 179 202 174 175 177 151 203 223 188 239 90 150 337 269 240 106 132 153 163 174 189 171 172 159 144 137 148 156 170 171 179 181 170 160 154 155 154 153 149 148 152 157 157 166 164 168 171 169 176 180 210 189 199 204 219 233 250 262 267 255 253 260 268 282 290 289 281 281 280 277 224 223 202 198
72 117 109 96 77 25 65 15 17 12 109 181 217 204 173 193 197 203 186 152 186 205 208 229 242 249 301 326 31 50 84 71 54 122 135 136 146 168 167 167 173 178 183 148 140 137 144 137 124 129 140 147 154 160 171 174 176 173 175 175 171 183 196 178 157 162 179 208 239 261 272 269 260 237 247 251 262 267 272 270 258 242 233 228 218 207
161 202 132 138 118 138 37 64 231 247 202 210 199 202 202 197 197 224 262 45 240 222 187 169 239 245 252 324 335 44 94 103 130 125 140 152 175 175 174 175 170 168 157 163 166 161 138 129 144 166 172 173 176 178 173 175 182 179 180 174 179 181 184 167 162 156 173 170 212 248 247 267 289 264 260 252 266 270 276 269 258 242 230 229 233 224
180 150 150 168 168 170 172 180 190 196 208 202 205 192 202 203 194 179 220 199 233 227 169 203 241 245 1 329 274 231 140 165 187 191 210 171 174 169 146 145 163 166 182 187 172 148 163 179 178 180 185 183 179 180 180 181 182 184 182 186 173 166 159 161 157 189 195 200 212 240 251 272 298 297 294 282 278 271 278 281 271 264 260 234 229 221
161 173 192 185 188 194 194 192 94 77 63 173 173 192 200 206 193 195 182 220 226 216 204 230 238 259 234 250 242 216 194 196 202 191 185 197 208 163 148 155 165 179 183 174 171 174 153 161 185 194 189 187 182 177 178 180 186 185 182 172 162 152 156 174 186 197 197 200 199 211 222 219 223 234 244 244 252 274 278 270 256 245 251 239 227 222
97 179 200 193 209 206 183 135 139 156 177 189 183 194 189 193 197 198 198 220 215 206 259 240 233 240 240 214 231 223 221 218 204 200 208 203 194 188 189 190 193 160 169 160 155 160 178 194 193 194 193 184 188 183 184 188 185 181 177 179 170 165 175 184 183 187 195 201 205 209 212 207 206 212 216 220 219 221 225 235 241 242 244 229 233 227
161 198 193 190 209 199 166 154 155 169 184 185 190 188 193 188 193 204 213 221 192 199 223 234 222 236 249 212 221 219 209 203 199 198 198 189 172 159 160 177 188 194 194 193 195 189 188 192 199 197 193 192 180 186 193 190 186 172 180 185 178 171 179 178 180 187 193 203 211 207 198 200 201 201 203 210 222 229 236 237 240 252 257 245 263 268
160 217 180 183 193 191 171 164 164 169 175 180 187 191 193 191 198 208 221 219 207 223 235 247 201 229 244 217 208 216 216 201 203 141 118 136 167 176 182 196 200 203 201 198 198 199 197 200 197 196 183 180 187 190 192 193 190 190 188 193 184 174 172 162 187 192 201 209 209 197 189 191 175 172 180 188 218 240 261 301 356 27 1 318 293 289
185 200 177 168 189 202 197 182 172 173 172 187 190 190 190 193 203 212 218 218 209 230 238 242 236 252 251 174 206 199 202 140 101 146 180 193 182 185 192 204 207 206 207 207 204 208 210 209 202 187 181 191 191 195 194 193 190 191 196 191 183 178 170 163 182 194 201 210 193 186 180 160 150 131 160 250 20 41 46 36 45 52 64 47 54 179
192 208 160 160 187 210 204 190 188 177 178 183 189 188 189 193 204 209 214 211 200 216 229 238 246 243 255 152 233 178 159 153 173 187 200 208 205 192 196 201 200 204 202 206 211 213 212 210 201 190 194 198 198 194 189 187 185 179 200 187 186 178 166 170 185 192 200 195 180 173 158 149 139 141 140 101 84 76 74 85 80 64 82 130 202 335
190 174 161 165 197 211 201 172 166 145 117 196 203 194 196 201 205 209 219 215 209 214 221 221 228 230 122 136 202 198 196 195 191 194 199 214 212 200 198 198 197 202 203 199 207 216 215 208 201 196 202 195 190 193 199 179 170 194 190 184 185 159 168 177 182 189 191 185 172 167 154 150 150 151 150 146 135 131 110 112 124 128 126 115 72 115
183 180 163 161 201 209 180 141 123 153 203 213 208 201 193 199 200 208 215 215 214 212 227 226 237 237 214 219 187 204 204 205 199 210 199 196 208 214 208 202 201 202 207 212 211 210 213 213 216 211 201 194 193 191 184 180 186 193 180 168 154 159 168 167 182 184 187 176 178 170 166 160 156 164 164 149 140 133 131 132 141 147 143 128 113 138
183 180 177 166 197 196 132 129 172 211 217 228 307 147 190 199 200 209 219 218 216 218 231 238 238 236 212 209 204 211 217 222 204 213 223 218 204 202 194 195 204 205 210 220 223 219 207 206 212 215 209 198 186 175 164 185 178 154 147 152 154 162 161 172 172 186 185 183 181 172 171 167 166 165 158 152 146 142 145 145 137 142 149 150 160 162
188 176 157 182 158 78 158 169 202 223 218 349 150 162 187 200 210 209 238 232 220 215 218 230 239 237 221 225 219 212 217 229 238 232 224 213 201 184 170 199 211 207 219 220 217 213 202 202 203 201 208 194 158 176 180 181 163 150 160 150 155 161 165 165 174 184 184 190 188 181 176 169 168 163 154 152 151 151 156 157 161 161 158 148 153 149
285 196 176 182 181 173 166 179 204 40 22 204 185 189 174 197 197 194 221 238 227 230 234 243 246 239 232 234 220 220 214 229 252 248 228 212 192 174 173 197 207 220 224 226 207 207 204 203 200 203 185 168 184 176 193 166 157 150 148 155 163 162 167 166 181 190 189 191 183 179 171 167 162 162 157 156 154 164 169 169 162 158 150 147 152 153
271 207 227 174 206 173 156 182 208 234 235 207 220 209 186 167 153 191 211 258 197 202 212 224 232 229 225 220 213 198 138 197 245 249 221 179 173 189 205 220 230 228 225 226 214 212 203 200 191 178 171 183 189 189 163 157 158 155 158 168 166 165 173 177 197 189 185 186 178 171 163 160 160 161 160 158 169 174 171 156 159 169 163 163 161 170
232 250 351 226 172 173 186 193 198 210 230 221 221 186 154 121 105 97 176 260 231 208 215 215 227 227 219 213 195 128 147 213 239 246 109 150 180 187 208 228 234 239 233 218 206 210 208 205 189 182 173 169 181 191 166 159 157 156 172 176 176 173 178 197 196 181 181 179 169 165 161 161 162 161 160 165 175 171 168 175 170 151 150 148 143 155
199 192 180 217 208 204 183 193 211 202 228 230 211 144 161 125 116 86 198 251 251 202 213 207 224 226 211 201 149 173 192 218 234 228 136 153 193 197 207 221 231 238 236 226 216 198 199 172 122 141 169 179 197 172 159 156 159 172 176 183 169 177 198 202 184 165 157 164 166 162 157 157 160 161 163 170 164 166 168 148 138 151 150 144 137 135
197 199 196 214 194 211 209 222 267 269 263 320 124 143 142 126 120 178 216 232 258 193 195 204 221 220 190 193 172 200 216 221 229 145 174 182 195 209 214 218 224 228 229 220 218 202 162 174 177 180 187 193 173 161 161 157 158 181 188 171 172 200 200 172 153 152 156 154 153 156 159 160 161 159 164 163 163 155 143 152 150 143 144 142 127 120
214 172 220 186 205 194 200 216 230 267 253 117 151 137 137 136 193 209 221 249 66 145 174 197 213 214 181 198 203 215 230 229 232 177 188 193 198 211 213 216 226 235 234 220 209 179 175 176 190 184 188 177 166 167 164 162 170 181 170 171 198 200 163 151 147 147 149 149 152 153 152 149 149 152 154 152 143 145 146 146 144 148 146 145 142 141
179 183 194 191 165 69 171 198 209 237 228 151 143 145 163 178 213 216 21 358 40 117 170 186 201 201 181 201 206 215 228 229 225 214 208 213 217 222 220 222 228 232 228 214 196 194 173 177 185 194 191 176 166 163 165 161 170 174 171 187 197 168 152 146 148 146 145 146 147 150 149 147 149 151 151 155 156 150 149 147 142 143 144 145 138 136
172 197 188 217 185 196 193 199 208 182 342 148 145 184 203 194 58 60 150 287 322 115 134 171 210 196 188 200 205 219 224 228 233 235 231 232 236 235 220 220 226 233 224 209 196 186 179 192 192 186 172 164 160 164 166 168 171 172 175 190 173 153 144 144 144 142 142 147 147 146 146 146 146 145 150 153 149 145 141 143 138 136 147 144 142 142
164 214 179 207 180 203 204 221 233 219 190 182 194 202 207 239 277 31 64 161 144 125 137 142 186 193 184 195 206 210 227 232 233 231 225 230 223 221 220 223 220 220 202 188 194 183 179 182 179 163 154 165 160 163 169 175 168 169 178 182 159 154 150 145 143 140 141 142 142 141 139 129 130 133 135 139 139 134 132 129 133 129 132 131 130 131
177 196 207 247 239 230 255 238 235 240 240 244 232 220 207 209 228 188 160 197 240 176 161 163 187 187 196 191 191 217 219 223 225 237 234 235 227 224 222 224 227 210 190 170 148 165 176 155 148 156 162 163 165 162 172 179 170 171 180 159 159 153 146 142 138 136 134 131 129 132 129 125 122 122 124 127 125 127 134 138 139 128 127 126 125 127
248 178 202 217 163 183 239 229 239 243 242 239 269 295 294 259 267 222 310 305 245 166 186 116 160 191 196 194 196 205 216 218 223 229 233 239 227 211 198 204 208 190 174 182 187 154 147 155 159 170 168 166 170 163 169 165 168 151 141 157 146 140 136 133 129 126 126 126 124 122 124 126 126 123 118 117 110 109 117 125 132 127 131 149 150 153
249 165 212 215 212 212 244 237 228 239 245 235 225 237 247 260 354 72 154 160 185 162 133 180 96 303 228 221 216 209 219 222 220 232 236 223 211 202 202 201 195 196 213 181 158 163 155 166 173 170 166 166 164 150 138 126 124 127 127 125 131 134 129 125 130 132 130 127 127 129 132 130 129 130 131 135 138 137 139 149 153 152 162 169 173 170
198 157 206 159 221 242 261 261 249 290 265 244 239 238 1 120 149 19 84 113 14 4 334 332 211 207 178 211 208 210 226 238 224 225 229 227 212 199 196 196 194 190 171 162 180 173 177 175 170 168 159 147 140 132 122 106 97 108 118 128 136 138 128 124 118 118 121 125 125 133 134 134 141 143 144 150 146 156 164 164 168 167 170 182 178 180
148 205 170 176 223 223 225 239 219 231 249 244 234 208 192 197 151 198 198 207 211 214 217 213 230 230 278 279 240 221 220 236 240 225 232 226 211 200 191 189 187 182 190 188 165 175 164 163 155 148 141 131 131 131 125 115 104 100 121 132 135 132 126 125 121 120 123 127 132 136 134 137 140 141 147 152 151 130 85 102 151 166 157 174 145 130
210 206 185 214 218 235 232 239 229 224 247 257 237 191 207 202 202 212 218 222 234 242 252 233 267 284 250 245 208 199 225 236 253 222 239 246 227 202 188 176 173 183 182 164 149 147 143 136 131 127 125 134 135 135 131 119 111 113 122 128 124 124 125 127 124 122 126 130 140 144 141 141 138 141 145 153 151 149 146 142 53 143 144 143 140 129